| time (UTC) | temp C | wind direction | speed KPH | gust KPH | rain 1hr cm | rain 24hr cm | rain mn cm | humidity % | barometer mb |
| 20260506141502 | 11 | 20 | 11.3 | 0.0 | 0.00 | 0.00 | 0.00 | 86 | 1001.4 |
| 20260506140002 | 11 | 360 | 12.9 | 0.0 | 0.00 | 0.00 | 0.00 | 86 | 1001.4 |
| 20260506134502 | 12 | 360 | 12.9 | 0.0 | 0.00 | 0.00 | 0.00 | 87 | 1001.3 |
| 20260506133002 | 12 | 20 | 9.7 | 0.0 | 0.00 | 0.00 | 0.00 | 87 | 1001.3 |
| 20260506131502 | 11 | 20 | 9.7 | 0.0 | 0.00 | 0.00 | 0.00 | 88 | 1001.3 |
| 20260506130003 | 11 | 10 | 8.0 | 0.0 | 0.00 | 0.00 | 0.00 | 88 | 1001.3 |
| 20260506124502 | 11 | 20 | 8.0 | 0.0 | 0.00 | 0.00 | 0.00 | 88 | 1001.1 |
| 20260506123002 | 11 | 20 | 8.0 | 0.0 | 0.00 | 0.00 | 0.00 | 88 | 1001.1 |
| 20260506121502 | 12 | 10 | 9.7 | 0.0 | 0.00 | 0.00 | 0.00 | 88 | 1000.7 |
| 20260506120002 | 12 | 10 | 9.7 | 0.0 | 0.00 | 0.00 | 0.00 | 88 | 1000.7 |
| 20260506114502 | 11 | 10 | 9.7 | 0.0 | 0.00 | 0.00 | 0.00 | 90 | 1000.6 |
| 20260506113002 | 11 | 10 | 9.7 | 0.0 | 0.00 | 0.00 | 0.00 | 90 | 1000.6 |
| 20260506111502 | 11 | 10 | 9.7 | 0.0 | 0.00 | 0.00 | 0.00 | 91 | 1000.4 |
| 20260506110002 | 11 | 360 | 14.5 | 0.0 | 0.00 | 0.00 | 0.00 | 91 | 1000.4 |
| 20260506104503 | 11 | 360 | 14.5 | 0.0 | 0.00 | 0.00 | 0.00 | 92 | 1000.1 |
| 20260506103002 | 11 | 10 | 12.9 | 0.0 | 0.00 | 0.00 | 0.00 | 92 | 1000.1 |
| 20260506101502 | 11 | 10 | 12.9 | 0.0 | 0.00 | 0.00 | 0.00 | 93 | 999.9 |
| 20260506100002 | 11 | 360 | 12.9 | 0.0 | 0.00 | 0.00 | 0.00 | 93 | 999.9 |
| 20260506094502 | 10 | 360 | 11.3 | 0.0 | 0.00 | 0.00 | 0.00 | 94 | 999.6 |
| 20260506093002 | 10 | 360 | 11.3 | 0.0 | 0.00 | 0.00 | 0.00 | 94 | 999.6 |
| 20260506091502 | 11 | 10 | 11.3 | 0.0 | 0.00 | 0.00 | 0.00 | 96 | 999.4 |
| 20260506090003 | 11 | 10 | 11.3 | 0.0 | 0.00 | 0.00 | 0.00 | 96 | 999.4 |
| 20260506084502 | 10 | 20 | 12.9 | 0.0 | 0.00 | 0.00 | 0.00 | 96 | 999.2 |
| 20260506083003 | 10 | 20 | 12.9 | 0.0 | 0.00 | 0.00 | 0.00 | 96 | 999.2 |
| 20260506081502 | 10 | 30 | 9.7 | 0.0 | 0.00 | 0.00 | 0.00 | 97 | 999.1 |
| 20260506073002 | 10 | 40 | 12.9 | 0.0 | 0.00 | 0.00 | 0.00 | 97 | 999.0 |
| 20260506071502 | 10 | 40 | 12.9 | 0.0 | 0.00 | 0.00 | 0.00 | 94 | 998.8 |
| 20260506061502 | 10 | 40 | 12.9 | 0.0 | 0.00 | 0.00 | 0.00 | 95 | 998.9 |
| 20260506044502 | 10 | 40 | 11.3 | 0.0 | 0.00 | 0.00 | 0.00 | 96 | 999.5 |
| 20260506043002 | 10 | 30 | 9.7 | 0.0 | 0.00 | 0.00 | 0.00 | 96 | 999.5 |
| 20260506041502 | 10 | 30 | 9.7 | 0.0 | 0.00 | 0.00 | 0.00 | 97 | 999.8 |
| 20260506040002 | 10 | 30 | 9.7 | 0.0 | 0.00 | 0.00 | 0.00 | 97 | 999.8 |
| 20260506034502 | 10 | 10 | 9.7 | 0.0 | 0.00 | 0.00 | 0.00 | 96 | 1000.0 |
| 20260506033002 | 10 | 10 | 9.7 | 0.0 | 0.00 | 0.00 | 0.00 | 96 | 1000.0 |
| 20260506031502 | 11 | 30 | 9.7 | 0.0 | 0.00 | 0.00 | 0.00 | 96 | 1000.3 |
| 20260506030003 | 11 | 30 | 9.7 | 0.0 | 0.00 | 0.00 | 0.00 | 96 | 1000.3 |
| 20260505204502 | 13 | 40 | 17.7 | 0.0 | 0.00 | 0.00 | 0.00 | 83 | 1002.1 |
| 20260505203002 | 13 | 40 | 17.7 | 0.0 | 0.00 | 0.00 | 0.00 | 83 | 1002.1 |
| 20260505201502 | 14 | 40 | 17.7 | 0.0 | 0.00 | 0.00 | 0.00 | 81 | 1002.2 |
| 20260505200002 | 14 | 40 | 16.1 | 0.0 | 0.00 | 0.00 | 0.00 | 81 | 1002.2 |
| 20260505194502 | 15 | 40 | 14.5 | 0.0 | 0.00 | 0.00 | 0.00 | 79 | 1002.0 |
| 20260505193003 | 15 | 40 | 14.5 | 0.0 | 0.00 | 0.00 | 0.00 | 79 | 1002.0 |
| 20260505191502 | 15 | 40 | 14.5 | 0.0 | 0.00 | 0.00 | 0.00 | 78 | 1001.8 |
| 20260505190003 | 15 | 60 | 16.1 | 0.0 | 0.00 | 0.00 | 0.00 | 78 | 1001.8 |
| 20260505184502 | 16 | 60 | 16.1 | 0.0 | 0.00 | 0.00 | 0.00 | 74 | 1001.9 |
| 20260505183002 | 16 | 40 | 12.9 | 0.0 | 0.00 | 0.00 | 0.00 | 74 | 1001.9 |
| 20260505181502 | 16 | 40 | 12.9 | 0.0 | 0.00 | 0.00 | 0.00 | 74 | 1001.9 |
| 20260505180002 | 16 | 50 | 12.9 | 0.0 | 0.00 | 0.00 | 0.00 | 74 | 1001.9 |
| 20260505174502 | 17 | 50 | 12.9 | 0.0 | 0.00 | 0.00 | 0.00 | 72 | 1002.0 |
| 20260505173002 | 17 | 30 | 11.3 | 0.0 | 0.00 | 0.00 | 0.00 | 72 | 1002.0 |
| 20260505171502 | 17 | 30 | 11.3 | 0.0 | 0.00 | 0.00 | 0.00 | 70 | 1002.1 |
| 20260505170002 | 17 | 20 | 9.7 | 0.0 | 0.00 | 0.00 | 0.00 | 70 | 1002.1 |
| 20260505164502 | 17 | 360 | 12.9 | 0.0 | 0.00 | 0.00 | 0.00 | 70 | 1002.3 |
| 20260505163002 | 17 | 360 | 12.9 | 0.0 | 0.00 | 0.00 | 0.00 | 70 | 1002.3 |
| 20260505161502 | 17 | 360 | 12.9 | 0.0 | 0.00 | 0.00 | 0.00 | 69 | 1002.4 |
| 20260505153002 | 18 | 360 | 12.9 | 0.0 | 0.00 | 0.00 | 0.00 | 68 | 1002.4 |
| 20260505151502 | 19 | 330 | 6.4 | 0.0 | 0.00 | 0.00 | 0.00 | 60 | 1002.4 |